Hibbing, MN

1:08 PM CDT on March 24, 2017 (GMT -0500)
Chisholm-hibbing

Weather History for KHIB - November, 2012

Change the Weather History Date:

Thursday, November 29, 2012

  Actual Average Record
Temperature  
Mean Temperature 22 °F -  
Max Temperature 26 °F 27 °F 53 °F (1996)
Min Temperature 17 °F 8 °F -27 °F (1985)
Degree Days  
Heating Degree Days 44    
Moisture  
Dew Point 13 °F    
Average Humidity 76    
Maximum Humidity 84    
Minimum Humidity 71    
Precipitation  
Precipitation 0.00 in - - ()
Sea Level Pressure  
Sea Level Pressure 30.23 in    
Wind  
Wind Speed 6 mph (NE)    
Max Wind Speed 12 mph    
Max Gust Speed -    
Visibility 10 miles    
Events      
Averages and records for this station are not official NWS values.
T = Trace of Precipitation, MM = Missing Value Source: NWS Daily Summary

Daily Weather History Graph

Daily Weather History Graph

Search for Another Location

Airport or City:

Trip Planner

Search our weather history database for the weather conditions in past years. The results will help you decide how hot, cold, wet, or windy it might be!

Date:

Astronomy

Nov. 29, 2012 Rise Set
Actual Time 7:35 AM CST 4:23 PM CST
Civil Twilight 7:01 AM CST 4:58 PM CST
Nautical Twilight 6:22 AM CST 5:36 PM CST
Astronomical Twilight 5:45 AM CST 6:13 PM CST
Moon 5:26 PM CST (11/29) 8:23 AM CST (11/29)
Length of Visible Light 9h 57m
Length of Day
8h 47m
Full, 99% of the Moon is Illuminated
Nov 29
Full
Dec 6
Last Quarter
Dec 13
New
Dec 19
First Quarter
Dec 28
Full

Hourly Weather History & Observations

Time (CST) Temp. Windchill Dew Point Humidity Pressure Visibility Wind Dir Wind Speed Gust Speed Precip Events Conditions
12:53 AM 24.1 °F - 19.9 °F 84% 30.15 in 9.0 mi Calm Calm - N/A   Overcast
1:53 AM 25.0 °F 19.3 °F 19.9 °F 81% 30.13 in 10.0 mi North 4.6 mph - N/A   Overcast
2:33 AM 26.6 °F 17.5 °F 21.2 °F 80% 30.09 in 10.0 mi North 9.2 mph - N/A   Overcast
2:53 AM 25.0 °F 15.5 °F 19.9 °F 81% 30.16 in 10.0 mi North 9.2 mph - N/A   Overcast
3:53 AM 23.0 °F 13.9 °F 17.1 °F 78% 30.17 in 10.0 mi NNE 8.1 mph - N/A   Overcast
4:53 AM 21.9 °F 11.0 °F 16.0 °F 78% 30.18 in 10.0 mi NNE 10.4 mph - N/A   Overcast
5:53 AM 19.9 °F 13.4 °F 14.0 °F 78% 30.21 in 10.0 mi NNE 4.6 mph - N/A   Overcast
6:16 AM 19.4 °F 7.2 °F 12.2 °F 74% 30.13 in 10.0 mi NNE 11.5 mph - N/A   Overcast
6:39 AM 17.6 °F 6.4 °F 12.2 °F 79% 30.14 in 10.0 mi North 9.2 mph - N/A   Overcast
6:53 AM 18.0 °F 8.7 °F 12.0 °F 78% 30.23 in 10.0 mi North 6.9 mph - N/A   Overcast
7:53 AM 17.1 °F 7.6 °F 10.9 °F 77% 30.25 in 10.0 mi NE 6.9 mph - N/A   Overcast
8:13 AM 17.6 °F 8.2 °F 10.4 °F 73% 30.15 in 10.0 mi NNE 6.9 mph - N/A   Overcast
8:53 AM 17.1 °F 10.0 °F 10.9 °F 77% 30.26 in 10.0 mi NNE 4.6 mph - N/A   Overcast
9:05 AM 17.6 °F 10.7 °F 10.4 °F 73% 30.18 in 10.0 mi NE 4.6 mph - N/A   Overcast
9:53 AM 18.0 °F 7.7 °F 12.0 °F 78% 30.27 in 10.0 mi NNE 8.1 mph - N/A   Overcast
10:51 AM 19.4 °F 10.4 °F 12.2 °F 74% 30.20 in 10.0 mi North 6.9 mph - N/A   Mostly Cloudy
10:53 AM 19.0 °F 8.2 °F 12.0 °F 74% 30.28 in 10.0 mi NNE 9.2 mph - N/A   Mostly Cloudy
11:53 AM 19.9 °F 9.3 °F 12.0 °F 71% 30.27 in 10.0 mi NNE 9.2 mph - N/A   Overcast
12:53 PM 19.9 °F 9.3 °F 12.9 °F 74% 30.26 in 10.0 mi NE 9.2 mph - N/A   Overcast
1:53 PM 19.9 °F 9.3 °F 12.0 °F 71% 30.25 in 10.0 mi NE 9.2 mph - N/A   Overcast
2:53 PM 19.0 °F 10.0 °F 12.0 °F 74% 30.26 in 10.0 mi ENE 6.9 mph - N/A   Overcast
3:53 PM 19.0 °F 11.1 °F 10.9 °F 71% 30.27 in 10.0 mi ENE 5.8 mph - N/A   Overcast
4:43 PM 17.6 °F 9.3 °F 10.4 °F 73% 30.19 in 10.0 mi NE 5.8 mph - N/A   Overcast
4:53 PM 18.0 °F 11.1 °F 10.9 °F 74% 30.28 in 10.0 mi NE 4.6 mph - N/A   Overcast
5:53 PM 18.0 °F 6.9 °F 10.0 °F 71% 30.30 in 10.0 mi NE 9.2 mph - N/A   Overcast
6:53 PM 17.1 °F 7.6 °F 10.0 °F 74% 30.31 in 10.0 mi ENE 6.9 mph - N/A   Overcast
7:53 PM 17.1 °F 7.6 °F 10.0 °F 74% 30.32 in 10.0 mi East 6.9 mph - N/A   Overcast
8:53 PM 17.1 °F 8.7 °F 10.0 °F 74% 30.30 in 10.0 mi ENE 5.8 mph - N/A   Overcast
9:29 PM 17.6 °F 6.4 °F 10.4 °F 73% 30.21 in 10.0 mi East 9.2 mph - N/A   Overcast
9:53 PM 18.0 °F 6.1 °F 12.0 °F 78% 30.30 in 10.0 mi East 10.4 mph - N/A   Overcast
10:53 PM 18.0 °F 6.9 °F 12.0 °F 78% 30.30 in 10.0 mi NE 9.2 mph - N/A   Overcast
11:53 PM 18.0 °F 7.7 °F 14.0 °F 84% 30.30 in 10.0 mi ENE 8.1 mph - N/A   Overcast